A4046 KRND-KDLF

Flight info

Callsign A4046
Flight time 1h 36m
Altitude 6000
Route ALISS6 ALISS WEBOX WEBOX4
Aircraft C172/L-VGD/A

Departure

Time 2026-05-07 02:52
Airport Randolph Air Force Base (KRND)

Arrival

Time 2026-05-07 04:28
Airport Laughlin Air Force Base (KDLF)
Time Latitude Longitude Altitude Speed Heading
2026-05-07 02:33 29.52366 -98.27327 739 ft 0 kts 335°
2026-05-07 02:45 29.52370 -98.27328 739 ft 3 kts
2026-05-07 02:45 29.52394 -98.27282 739 ft 10 kts 43°
2026-05-07 02:45 29.52433 -98.27207 737 ft 12 kts 78°
2026-05-07 02:46 29.52472 -98.27126 734 ft 11 kts 64°
2026-05-07 02:46 29.52516 -98.27056 733 ft 10 kts 14°
2026-05-07 02:46 29.52571 -98.27040 733 ft 7 kts 19°
2026-05-07 02:46 29.52592 -98.26981 733 ft 12 kts 99°
2026-05-07 02:47 29.52565 -98.26866 732 ft 16 kts 106°
2026-05-07 02:47 29.52538 -98.26753 732 ft 13 kts 103°
2026-05-07 02:47 29.52539 -98.26660 733 ft 11 kts 75°
2026-05-07 02:47 29.52494 -98.26599 733 ft 12 kts 151°
2026-05-07 02:48 29.52418 -98.26550 732 ft 13 kts 152°
2026-05-07 02:48 29.52336 -98.26498 732 ft 14 kts 148°
2026-05-07 02:48 29.52259 -98.26449 732 ft 11 kts 154°
2026-05-07 02:48 29.52248 -98.26442 732 ft 0 kts 147°
2026-05-07 02:49 29.52246 -98.26430 732 ft 7 kts 85°
2026-05-07 02:49 29.52267 -98.26367 731 ft 6 kts 67°
2026-05-07 02:50 29.52268 -98.26365 731 ft 0 kts 65°
2026-05-07 02:50 29.52270 -98.26360 731 ft 5 kts 60°
2026-05-07 02:50 29.52309 -98.26304 731 ft 9 kts 355°
2026-05-07 02:50 29.52406 -98.26362 733 ft 33 kts 328°
2026-05-07 02:51 29.52725 -98.26578 745 ft 69 kts 325°
2026-05-07 02:51 29.53166 -98.26883 857 ft 78 kts 336°
2026-05-07 02:51 29.53642 -98.27138 1093 ft 72 kts 341°
2026-05-07 02:51 29.54095 -98.27369 1328 ft 72 kts 342°
2026-05-07 02:52 29.54498 -98.27670 1609 ft 67 kts 320°
2026-05-07 02:52 29.54836 -98.28128 1715 ft 79 kts 315°
2026-05-07 02:52 29.55066 -98.28729 1919 ft 80 kts 298°
2026-05-07 02:52 29.55154 -98.29443 1942 ft 109 kts 271°
2026-05-07 02:53 29.54933 -98.30255 2127 ft 111 kts 264°
2026-05-07 02:53 29.55189 -98.31081 2112 ft 115 kts 319°
2026-05-07 02:53 29.55749 -98.31710 2296 ft 110 kts 323°
2026-05-07 02:53 29.56288 -98.32321 2483 ft 108 kts 322°
2026-05-07 02:54 29.56812 -98.32938 2637 ft 108 kts 321°
2026-05-07 02:54 29.57342 -98.33567 2763 ft 111 kts 320°
2026-05-07 02:54 29.57866 -98.34208 2887 ft 109 kts 318°
2026-05-07 02:54 29.58380 -98.34848 3009 ft 109 kts 318°
2026-05-07 02:55 29.58890 -98.35488 3132 ft 112 kts 316°
2026-05-07 02:55 29.59417 -98.36161 3259 ft 114 kts 313°
2026-05-07 02:55 29.59950 -98.36844 3366 ft 115 kts 315°
2026-05-07 02:55 29.60470 -98.37528 3480 ft 113 kts 314°
2026-05-07 02:56 29.60981 -98.38208 3573 ft 112 kts 315°
2026-05-07 02:56 29.61492 -98.38891 3675 ft 113 kts 315°
2026-05-07 02:56 29.62001 -98.39581 3768 ft 113 kts 314°
2026-05-07 02:56 29.62500 -98.40261 3902 ft 111 kts 312°
2026-05-07 02:57 29.62988 -98.40929 4035 ft 110 kts 313°
2026-05-07 02:57 29.63479 -98.41603 4155 ft 109 kts 312°
2026-05-07 02:57 29.63957 -98.42265 4273 ft 107 kts 311°
2026-05-07 02:57 29.64427 -98.42922 4396 ft 106 kts 311°
2026-05-07 02:58 29.64895 -98.43579 4515 ft 106 kts 310°
2026-05-07 02:58 29.65360 -98.44233 4641 ft 105 kts 309°
2026-05-07 02:58 29.65822 -98.44881 4762 ft 104 kts 309°
2026-05-07 02:58 29.66278 -98.45525 4879 ft 103 kts 309°
2026-05-07 02:59 29.66732 -98.46167 4993 ft 103 kts 309°
2026-05-07 02:59 29.67183 -98.46802 5130 ft 102 kts 308°
2026-05-07 02:59 29.67617 -98.47425 5247 ft 100 kts 308°
2026-05-07 02:59 29.68056 -98.48047 5370 ft 100 kts 308°
2026-05-07 03:00 29.68500 -98.48673 5492 ft 101 kts 307°
2026-05-07 03:00 29.68945 -98.49307 5591 ft 102 kts 308°
2026-05-07 03:00 29.69379 -98.49937 5699 ft 99 kts 307°
2026-05-07 03:00 29.69810 -98.50557 5798 ft 99 kts 307°
2026-05-07 03:01 29.70239 -98.51180 5899 ft 99 kts 306°
2026-05-07 03:01 29.70668 -98.51803 5970 ft 101 kts 306°
2026-05-07 03:01 29.71116 -98.52454 5985 ft 107 kts 307°
2026-05-07 03:01 29.71583 -98.53133 5981 ft 112 kts 307°
2026-05-07 03:02 29.72070 -98.53839 5984 ft 114 kts 306°
2026-05-07 03:02 29.72562 -98.54560 5980 ft 115 kts 306°
2026-05-07 03:02 29.73060 -98.55288 5981 ft 116 kts 307°
2026-05-07 03:02 29.73553 -98.56008 5980 ft 114 kts 306°
2026-05-07 03:03 29.74043 -98.56722 5981 ft 114 kts 307°
2026-05-07 03:03 29.74536 -98.57441 5975 ft 114 kts 307°
2026-05-07 03:03 29.75030 -98.58161 5978 ft 115 kts 306°
2026-05-07 03:03 29.75525 -98.58886 5987 ft 115 kts 306°
2026-05-07 03:04 29.76009 -98.59594 6002 ft 113 kts 306°
2026-05-07 03:04 29.76496 -98.60308 6003 ft 114 kts 307°
2026-05-07 03:04 29.76985 -98.61029 5998 ft 114 kts 306°
2026-05-07 03:04 29.77472 -98.61746 5998 ft 114 kts 306°
2026-05-07 03:05 29.77962 -98.62473 5997 ft 116 kts 306°
2026-05-07 03:05 29.78461 -98.63213 5993 ft 117 kts 307°
2026-05-07 03:05 29.78964 -98.63952 5990 ft 117 kts 307°
2026-05-07 03:05 29.79464 -98.64679 5989 ft 116 kts 307°
2026-05-07 03:06 29.79954 -98.65399 5994 ft 116 kts 307°
2026-05-07 03:06 29.80450 -98.66135 5992 ft 117 kts 307°
2026-05-07 03:06 29.80948 -98.66876 5989 ft 117 kts 307°
2026-05-07 03:06 29.81449 -98.67625 5986 ft 118 kts 306°
2026-05-07 03:07 29.81946 -98.68380 5989 ft 119 kts 306°
2026-05-07 03:07 29.82452 -98.69140 5985 ft 120 kts 307°
2026-05-07 03:07 29.82960 -98.69898 5981 ft 119 kts 307°
2026-05-07 03:07 29.83468 -98.70644 5990 ft 119 kts 307°
2026-05-07 03:08 29.83982 -98.71396 5989 ft 120 kts 308°
2026-05-07 03:08 29.84490 -98.72146 5990 ft 120 kts 307°
2026-05-07 03:08 29.85005 -98.72906 5995 ft 121 kts 307°
2026-05-07 03:08 29.85522 -98.73667 5997 ft 121 kts 307°
2026-05-07 03:09 29.86033 -98.74428 6001 ft 120 kts 307°
2026-05-07 03:09 29.86541 -98.75185 6006 ft 119 kts 307°
2026-05-07 03:09 29.87054 -98.75941 6005 ft 120 kts 307°
2026-05-07 03:09 29.87565 -98.76697 6010 ft 120 kts 308°
2026-05-07 03:10 29.88073 -98.77459 6013 ft 120 kts 307°
2026-05-07 03:10 29.88581 -98.78223 6014 ft 120 kts 308°
2026-05-07 03:10 29.89084 -98.78970 6017 ft 120 kts 308°
2026-05-07 03:10 29.89603 -98.79720 6019 ft 120 kts 308°
2026-05-07 03:11 29.90117 -98.80472 6022 ft 119 kts 309°
2026-05-07 03:11 29.90628 -98.81224 6024 ft 119 kts 308°
2026-05-07 03:11 29.91142 -98.81977 6025 ft 119 kts 309°
2026-05-07 03:11 29.91653 -98.82728 6026 ft 119 kts 308°
2026-05-07 03:12 29.92149 -98.83459 6028 ft 113 kts 308°
2026-05-07 03:12 29.92622 -98.84162 6024 ft 109 kts 308°
2026-05-07 03:12 29.93080 -98.84848 6032 ft 107 kts 309°
2026-05-07 03:12 29.93519 -98.85505 6035 ft 103 kts 309°
2026-05-07 03:13 29.93949 -98.86153 6041 ft 102 kts 309°
2026-05-07 03:13 29.94385 -98.86797 6042 ft 102 kts 309°
2026-05-07 03:13 29.94824 -98.87452 6042 ft 104 kts 308°
2026-05-07 03:13 29.95262 -98.88110 6047 ft 104 kts 308°
2026-05-07 03:14 29.95702 -98.88767 6048 ft 103 kts 309°
2026-05-07 03:14 29.96145 -98.89421 6049 ft 104 kts 310°
2026-05-07 03:14 29.97034 -98.90732 6050 ft 104 kts 309°
2026-05-07 03:15 29.97471 -98.91382 6054 ft 105 kts 309°
2026-05-07 03:15 29.97916 -98.92044 6053 ft 104 kts 309°
2026-05-07 03:15 29.98359 -98.92702 6057 ft 104 kts 309°
2026-05-07 03:15 29.98804 -98.93364 6061 ft 105 kts 310°
2026-05-07 03:16 29.99252 -98.94029 6059 ft 105 kts 310°
2026-05-07 03:16 29.99697 -98.94691 6059 ft 104 kts 309°
2026-05-07 03:16 30.00140 -98.95352 6060 ft 104 kts 309°
2026-05-07 03:16 30.00577 -98.96009 6065 ft 103 kts 310°
2026-05-07 03:17 30.01011 -98.96662 6066 ft 102 kts 310°
2026-05-07 03:17 30.01441 -98.97306 6070 ft 103 kts 310°
2026-05-07 03:17 30.01880 -98.97959 6067 ft 103 kts 310°
2026-05-07 03:17 30.02322 -98.98618 6068 ft 104 kts 309°
2026-05-07 03:18 30.02767 -98.99281 6064 ft 104 kts 310°
2026-05-07 03:18 30.03209 -98.99939 6067 ft 103 kts 310°
2026-05-07 03:18 30.03650 -99.00597 6073 ft 105 kts 310°
2026-05-07 03:18 30.04101 -99.01266 6068 ft 106 kts 309°
2026-05-07 03:19 30.04552 -99.01938 6069 ft 105 kts 310°
2026-05-07 03:19 30.04991 -99.02596 6079 ft 105 kts 310°
2026-05-07 03:19 30.05437 -99.03261 6081 ft 105 kts 310°
2026-05-07 03:19 30.05881 -99.03924 6073 ft 104 kts 310°
2026-05-07 03:20 30.06320 -99.04584 6079 ft 104 kts 309°
2026-05-07 03:20 30.06761 -99.05245 6076 ft 104 kts 310°
2026-05-07 03:20 30.07201 -99.05906 6078 ft 104 kts 310°
2026-05-07 03:20 30.07640 -99.06563 6074 ft 103 kts 310°
2026-05-07 03:21 30.08078 -99.07216 6073 ft 103 kts 311°
2026-05-07 03:21 30.08513 -99.07862 6075 ft 104 kts 311°
2026-05-07 03:21 30.08956 -99.08519 6072 ft 103 kts 310°
2026-05-07 03:21 30.09392 -99.09172 6071 ft 102 kts 310°
2026-05-07 03:22 30.09826 -99.09823 6069 ft 102 kts 310°
2026-05-07 03:22 30.10263 -99.10472 6068 ft 103 kts 311°
2026-05-07 03:22 30.10703 -99.11127 6053 ft 105 kts 310°
2026-05-07 03:22 30.11155 -99.11811 6002 ft 108 kts 310°
2026-05-07 03:23 30.11601 -99.12505 5995 ft 107 kts 310°
2026-05-07 03:23 30.12049 -99.13175 5991 ft 104 kts 310°
2026-05-07 03:23 30.12490 -99.13831 5996 ft 103 kts 310°
2026-05-07 03:23 30.12925 -99.14479 5992 ft 104 kts 310°
2026-05-07 03:24 30.13364 -99.15136 5985 ft 102 kts 311°
2026-05-07 03:24 30.13797 -99.15784 5995 ft 103 kts 310°
2026-05-07 03:24 30.14238 -99.16439 5982 ft 103 kts 311°
2026-05-07 03:24 30.14676 -99.17094 5986 ft 103 kts 311°
2026-05-07 03:25 30.15111 -99.17747 5982 ft 102 kts 310°
2026-05-07 03:25 30.15544 -99.18394 5978 ft 101 kts 312°
2026-05-07 03:25 30.15976 -99.19038 5981 ft 102 kts 310°
2026-05-07 03:25 30.16410 -99.19681 5978 ft 103 kts 310°
2026-05-07 03:26 30.16852 -99.20341 5976 ft 104 kts 310°
2026-05-07 03:26 30.17298 -99.21003 5972 ft 103 kts 311°
2026-05-07 03:26 30.17729 -99.21659 5975 ft 103 kts 310°
2026-05-07 03:26 30.18167 -99.22317 5972 ft 104 kts 310°
2026-05-07 03:27 30.18614 -99.22982 5969 ft 105 kts 310°
2026-05-07 03:27 30.19064 -99.23652 5965 ft 105 kts 310°
2026-05-07 03:27 30.19509 -99.24321 5966 ft 105 kts 310°
2026-05-07 03:27 30.19955 -99.24990 5965 ft 105 kts 310°
2026-05-07 03:28 30.20396 -99.25649 5962 ft 105 kts 311°
2026-05-07 03:28 30.20838 -99.26320 5962 ft 106 kts 310°
2026-05-07 03:28 30.21288 -99.26995 5959 ft 106 kts 310°
2026-05-07 03:28 30.21736 -99.27671 5955 ft 105 kts 310°
2026-05-07 03:29 30.22180 -99.28343 5958 ft 105 kts 310°
2026-05-07 03:29 30.22629 -99.29017 5953 ft 106 kts 310°
2026-05-07 03:29 30.23079 -99.29694 5949 ft 106 kts 310°
2026-05-07 03:29 30.23524 -99.30369 5953 ft 105 kts 310°
2026-05-07 03:30 30.23972 -99.31045 5947 ft 106 kts 310°
2026-05-07 03:30 30.24418 -99.31714 5946 ft 106 kts 310°
2026-05-07 03:30 30.24861 -99.32389 5944 ft 105 kts 310°
2026-05-07 03:30 30.25301 -99.33060 5943 ft 104 kts 309°
2026-05-07 03:31 30.25739 -99.33728 5939 ft 104 kts 309°
2026-05-07 03:31 30.26132 -99.34419 5919 ft 106 kts 291°
2026-05-07 03:31 30.25992 -99.35295 5882 ft 115 kts 249°
2026-05-07 03:31 30.25629 -99.36073 5974 ft 107 kts 246°
2026-05-07 03:32 30.25278 -99.36841 5971 ft 110 kts 246°
2026-05-07 03:32 30.24922 -99.37638 5946 ft 113 kts 247°
2026-05-07 03:32 30.24559 -99.38446 5937 ft 113 kts 246°
2026-05-07 03:32 30.24202 -99.39236 5941 ft 112 kts 247°
2026-05-07 03:33 30.23842 -99.40031 5941 ft 112 kts 248°
2026-05-07 03:33 30.23480 -99.40827 5941 ft 112 kts 246°
2026-05-07 03:33 30.23119 -99.41622 5940 ft 112 kts 247°
2026-05-07 03:33 30.22761 -99.42422 5940 ft 112 kts 248°
2026-05-07 03:34 30.22401 -99.43221 5938 ft 112 kts 247°
2026-05-07 03:34 30.22038 -99.44017 5940 ft 112 kts 246°
2026-05-07 03:34 30.21670 -99.44822 5937 ft 114 kts 247°
2026-05-07 03:34 30.21306 -99.45616 5939 ft 113 kts 246°
2026-05-07 03:35 30.20939 -99.46425 5936 ft 114 kts 246°
2026-05-07 03:35 30.20571 -99.47234 5937 ft 113 kts 246°
2026-05-07 03:35 30.20204 -99.48037 5934 ft 112 kts 246°
2026-05-07 03:35 30.19840 -99.48828 5939 ft 112 kts 245°
2026-05-07 03:36 30.19475 -99.49625 5936 ft 113 kts 247°
2026-05-07 03:36 30.19108 -99.50426 5930 ft 112 kts 246°
2026-05-07 03:36 30.18741 -99.51221 5935 ft 111 kts 247°
2026-05-07 03:36 30.18379 -99.52010 5934 ft 111 kts 245°
2026-05-07 03:37 30.18020 -99.52792 5935 ft 112 kts 246°
2026-05-07 03:37 30.17652 -99.53591 5937 ft 114 kts 245°
2026-05-07 03:37 30.17282 -99.54401 5931 ft 114 kts 246°
2026-05-07 03:37 30.16909 -99.55213 5935 ft 114 kts 246°
2026-05-07 03:38 30.16537 -99.56024 5931 ft 114 kts 246°
2026-05-07 03:38 30.16165 -99.56831 5930 ft 114 kts 245°
2026-05-07 03:38 30.15794 -99.57633 5932 ft 113 kts 245°
2026-05-07 03:38 30.15425 -99.58437 5932 ft 114 kts 246°
2026-05-07 03:39 30.15053 -99.59242 5930 ft 114 kts 244°
2026-05-07 03:39 30.14679 -99.60048 5931 ft 114 kts 246°
2026-05-07 03:39 30.14312 -99.60845 5928 ft 114 kts 245°
2026-05-07 03:39 30.13936 -99.61653 5930 ft 114 kts 245°
2026-05-07 03:40 30.13562 -99.62465 5930 ft 115 kts 246°
2026-05-07 03:40 30.13185 -99.63281 5928 ft 115 kts 245°
2026-05-07 03:40 30.12810 -99.64093 5929 ft 114 kts 245°
2026-05-07 03:40 30.12436 -99.64902 5931 ft 114 kts 245°
2026-05-07 03:41 30.12061 -99.65713 5927 ft 115 kts 244°
2026-05-07 03:41 30.11683 -99.66528 5931 ft 115 kts 244°
2026-05-07 03:41 30.11313 -99.67323 5989 ft 110 kts 245°
2026-05-07 03:41 30.10952 -99.68100 5998 ft 110 kts 245°
2026-05-07 03:42 30.10596 -99.68867 5998 ft 110 kts 244°
2026-05-07 03:42 30.10234 -99.69647 5998 ft 111 kts 245°
2026-05-07 03:42 30.09870 -99.70431 5996 ft 111 kts 244°
2026-05-07 03:42 30.09504 -99.71222 5999 ft 113 kts 245°
2026-05-07 03:43 30.09133 -99.72024 5993 ft 114 kts 244°
2026-05-07 03:43 30.08760 -99.72830 5995 ft 114 kts 245°
2026-05-07 03:43 30.08384 -99.73640 5996 ft 115 kts 245°
2026-05-07 03:43 30.08010 -99.74449 5994 ft 114 kts 245°
2026-05-07 03:44 30.07638 -99.75253 5996 ft 113 kts 245°
2026-05-07 03:44 30.07274 -99.76042 5995 ft 113 kts 244°
2026-05-07 03:44 30.06903 -99.76842 5996 ft 113 kts 245°
2026-05-07 03:44 30.06531 -99.77643 5998 ft 113 kts 244°
2026-05-07 03:45 30.06159 -99.78448 5997 ft 114 kts 244°
2026-05-07 03:45 30.05785 -99.79257 5989 ft 114 kts 244°
2026-05-07 03:45 30.05410 -99.80064 5994 ft 114 kts 244°
2026-05-07 03:45 30.05036 -99.80873 5993 ft 114 kts 244°
2026-05-07 03:46 30.04667 -99.81671 5993 ft 114 kts 244°
2026-05-07 03:46 30.04294 -99.82482 5993 ft 114 kts 244°
2026-05-07 03:46 30.03919 -99.83294 5993 ft 115 kts 243°
2026-05-07 03:46 30.03538 -99.84106 5989 ft 115 kts 243°
2026-05-07 03:47 30.03156 -99.84920 5991 ft 115 kts 243°
2026-05-07 03:47 30.02774 -99.85734 5993 ft 115 kts 243°
2026-05-07 03:47 30.02393 -99.86544 5990 ft 114 kts 243°
2026-05-07 03:47 30.02017 -99.87349 5994 ft 114 kts 243°
2026-05-07 03:48 30.01642 -99.88155 5989 ft 114 kts 243°
2026-05-07 03:48 30.01271 -99.88949 5991 ft 114 kts 243°
2026-05-07 03:48 30.00894 -99.89759 5989 ft 115 kts 243°
2026-05-07 03:48 30.00515 -99.90577 5987 ft 115 kts 243°
2026-05-07 03:49 30.00136 -99.91394 5992 ft 116 kts 243°
2026-05-07 03:49 29.99758 -99.92212 5986 ft 115 kts 243°
2026-05-07 03:49 29.99381 -99.93023 5986 ft 115 kts 243°
2026-05-07 03:49 29.99007 -99.93833 5986 ft 114 kts 243°
2026-05-07 03:50 29.98640 -99.94630 5987 ft 114 kts 243°
2026-05-07 03:50 29.98263 -99.95436 5989 ft 114 kts 242°
2026-05-07 03:50 29.97884 -99.96245 5983 ft 114 kts 243°
2026-05-07 03:50 29.97511 -99.97055 5985 ft 114 kts 243°
2026-05-07 03:51 29.97135 -99.97864 5985 ft 114 kts 242°
2026-05-07 03:51 29.96757 -99.98669 5984 ft 114 kts 242°
2026-05-07 03:51 29.96384 -99.99471 5981 ft 114 kts 242°
2026-05-07 03:51 29.96004 -100.00274 5981 ft 114 kts 242°
2026-05-07 03:52 29.95623 -100.01082 5978 ft 115 kts 242°
2026-05-07 03:52 29.95248 -100.01897 5981 ft 115 kts 243°
2026-05-07 03:52 29.94871 -100.02713 5980 ft 115 kts 242°
2026-05-07 03:52 29.94494 -100.03513 5979 ft 115 kts 242°
2026-05-07 03:53 29.94115 -100.04318 5977 ft 114 kts 242°
2026-05-07 03:53 29.93744 -100.05129 5978 ft 114 kts 243°
2026-05-07 03:53 29.93379 -100.05940 5981 ft 114 kts 243°
2026-05-07 03:53 29.93007 -100.06752 5976 ft 115 kts 242°
2026-05-07 03:54 29.92539 -100.07500 5972 ft 115 kts 229°
2026-05-07 03:54 29.91998 -100.08175 5981 ft 115 kts 227°
2026-05-07 03:54 29.91452 -100.08851 5976 ft 115 kts 227°
2026-05-07 03:54 29.90916 -100.09519 5974 ft 115 kts 227°
2026-05-07 03:55 29.90372 -100.10196 5975 ft 115 kts 227°
2026-05-07 03:55 29.89831 -100.10871 5971 ft 114 kts 227°
2026-05-07 03:55 29.89290 -100.11545 5974 ft 115 kts 227°
2026-05-07 03:55 29.88748 -100.12222 5972 ft 115 kts 227°
2026-05-07 03:56 29.88206 -100.12898 5977 ft 115 kts 227°
2026-05-07 03:56 29.87666 -100.13573 5974 ft 114 kts 227°
2026-05-07 03:56 29.87122 -100.14242 5967 ft 115 kts 226°
2026-05-07 03:56 29.86582 -100.14899 5969 ft 114 kts 226°
2026-05-07 03:57 29.86037 -100.15566 5971 ft 114 kts 226°
2026-05-07 03:57 29.85491 -100.16235 5967 ft 115 kts 226°
2026-05-07 03:57 29.84946 -100.16903 5966 ft 114 kts 226°
2026-05-07 03:57 29.84401 -100.17570 5965 ft 114 kts 226°
2026-05-07 03:58 29.83859 -100.18237 5968 ft 114 kts 226°
2026-05-07 03:58 29.83321 -100.18902 5968 ft 114 kts 226°
2026-05-07 03:58 29.82782 -100.19567 5969 ft 114 kts 226°
2026-05-07 03:58 29.82250 -100.20224 5967 ft 114 kts 226°
2026-05-07 03:59 29.81714 -100.20890 5968 ft 113 kts 226°
2026-05-07 03:59 29.81178 -100.21555 5965 ft 113 kts 226°
2026-05-07 03:59 29.80643 -100.22221 5960 ft 113 kts 226°
2026-05-07 03:59 29.80110 -100.22885 5961 ft 113 kts 226°
2026-05-07 04:00 29.79577 -100.23550 5962 ft 113 kts 226°
2026-05-07 04:00 29.79046 -100.24215 5962 ft 113 kts 226°
2026-05-07 04:00 29.78516 -100.24881 5957 ft 113 kts 226°
2026-05-07 04:00 29.77994 -100.25537 5959 ft 113 kts 226°
2026-05-07 04:01 29.77461 -100.26198 5957 ft 112 kts 225°
2026-05-07 04:01 29.76928 -100.26853 5959 ft 112 kts 226°
2026-05-07 04:01 29.76397 -100.27507 5958 ft 112 kts 225°
2026-05-07 04:01 29.75863 -100.28159 5956 ft 112 kts 225°
2026-05-07 04:02 29.75328 -100.28815 5959 ft 113 kts 225°
2026-05-07 04:02 29.74792 -100.29471 5953 ft 113 kts 225°
2026-05-07 04:02 29.74256 -100.30127 5955 ft 112 kts 225°
2026-05-07 04:02 29.73732 -100.30771 5952 ft 112 kts 225°
2026-05-07 04:03 29.73203 -100.31422 5951 ft 111 kts 225°
2026-05-07 04:03 29.72677 -100.32072 5956 ft 111 kts 225°
2026-05-07 04:03 29.72152 -100.32721 5955 ft 111 kts 225°
2026-05-07 04:03 29.71625 -100.33371 5950 ft 111 kts 225°
2026-05-07 04:04 29.71098 -100.34021 5952 ft 111 kts 225°
2026-05-07 04:04 29.70571 -100.34673 5946 ft 111 kts 225°
2026-05-07 04:04 29.70048 -100.35324 5949 ft 111 kts 224°
2026-05-07 04:04 29.69527 -100.35973 5946 ft 110 kts 225°
2026-05-07 04:05 29.69003 -100.36622 5946 ft 111 kts 225°
2026-05-07 04:05 29.68497 -100.37251 5993 ft 107 kts 225°
2026-05-07 04:05 29.67992 -100.37880 6007 ft 108 kts 225°
2026-05-07 04:05 29.67481 -100.38518 6003 ft 109 kts 225°
2026-05-07 04:06 29.66968 -100.39159 5999 ft 109 kts 225°
2026-05-07 04:06 29.66456 -100.39801 6000 ft 109 kts 225°
2026-05-07 04:06 29.65944 -100.40442 6002 ft 109 kts 225°
2026-05-07 04:06 29.65431 -100.41083 5999 ft 109 kts 225°
2026-05-07 04:07 29.64914 -100.41725 5998 ft 110 kts 225°
2026-05-07 04:07 29.64402 -100.42363 5998 ft 110 kts 225°
2026-05-07 04:07 29.63879 -100.43009 5994 ft 110 kts 225°
2026-05-07 04:07 29.63358 -100.43652 5995 ft 110 kts 224°
2026-05-07 04:08 29.62836 -100.44290 5995 ft 109 kts 224°
2026-05-07 04:08 29.62316 -100.44927 5991 ft 109 kts 224°
2026-05-07 04:08 29.61799 -100.45564 5998 ft 109 kts 224°
2026-05-07 04:08 29.61279 -100.46207 5991 ft 110 kts 224°
2026-05-07 04:09 29.60934 -100.46636 5993 ft 110 kts 225°
2026-05-07 04:09 29.60242 -100.47492 5993 ft 110 kts 224°
2026-05-07 04:09 29.59889 -100.47927 5994 ft 110 kts 224°
2026-05-07 04:09 29.59198 -100.48777 5993 ft 110 kts 224°
2026-05-07 04:10 29.58679 -100.49421 5993 ft 110 kts 224°
2026-05-07 04:10 29.58153 -100.50067 5991 ft 111 kts 224°
2026-05-07 04:10 29.57626 -100.50712 5992 ft 111 kts 225°
2026-05-07 04:10 29.57102 -100.51353 5990 ft 109 kts 224°
2026-05-07 04:11 29.56757 -100.51776 5994 ft 110 kts 224°
2026-05-07 04:11 29.56236 -100.52414 5991 ft 110 kts 224°
2026-05-07 04:11 29.55717 -100.53051 5993 ft 109 kts 224°
2026-05-07 04:11 29.55197 -100.53687 5992 ft 109 kts 225°
2026-05-07 04:12 29.54506 -100.54537 5992 ft 110 kts 224°
2026-05-07 04:12 29.53984 -100.55181 5989 ft 110 kts 224°
2026-05-07 04:12 29.53460 -100.55825 5989 ft 110 kts 224°
2026-05-07 04:12 29.53115 -100.56249 5992 ft 110 kts 224°
2026-05-07 04:13 29.52596 -100.56887 5998 ft 109 kts 224°
2026-05-07 04:13 29.52077 -100.57526 5992 ft 109 kts 224°
2026-05-07 04:13 29.51557 -100.58164 5992 ft 109 kts 225°
2026-05-07 04:13 29.51038 -100.58804 5993 ft 110 kts 225°
2026-05-07 04:14 29.50355 -100.59658 5997 ft 110 kts 225°
2026-05-07 04:14 29.50007 -100.60094 5994 ft 110 kts 225°
2026-05-07 04:14 29.49460 -100.60708 5991 ft 110 kts 218°
2026-05-07 04:14 29.48825 -100.61182 5989 ft 109 kts 203°
2026-05-07 04:15 29.48113 -100.61416 5992 ft 108 kts 186°
2026-05-07 04:15 29.47367 -100.61464 6001 ft 107 kts 181°
2026-05-07 04:15 29.46622 -100.61508 6004 ft 108 kts 182°
2026-05-07 04:15 29.45872 -100.61560 5997 ft 108 kts 182°
2026-05-07 04:16 29.45121 -100.61609 5998 ft 108 kts 182°
2026-05-07 04:16 29.44372 -100.61660 6000 ft 108 kts 182°
2026-05-07 04:16 29.43624 -100.61710 6002 ft 108 kts 182°
2026-05-07 04:16 29.42876 -100.61761 6000 ft 108 kts 182°
2026-05-07 04:17 29.42133 -100.61809 6000 ft 109 kts 182°
2026-05-07 04:17 29.41377 -100.61856 6002 ft 109 kts 182°
2026-05-07 04:17 29.40641 -100.61901 5996 ft 109 kts 182°
2026-05-07 04:17 29.39885 -100.61948 6000 ft 109 kts 182°
2026-05-07 04:18 29.39132 -100.61997 5999 ft 108 kts 182°
2026-05-07 04:18 29.38381 -100.62046 6002 ft 108 kts 182°
2026-05-07 04:18 29.37630 -100.62093 6001 ft 108 kts 182°
2026-05-07 04:18 29.36882 -100.62149 6001 ft 108 kts 183°
2026-05-07 04:19 29.36143 -100.62208 6004 ft 108 kts 183°
2026-05-07 04:19 29.35411 -100.62268 6001 ft 108 kts 183°
2026-05-07 04:19 29.34661 -100.62328 6003 ft 108 kts 183°
2026-05-07 04:19 29.33913 -100.62387 6000 ft 108 kts 183°
2026-05-07 04:20 29.33162 -100.62444 5973 ft 111 kts 183°
2026-05-07 04:20 29.32337 -100.62509 5754 ft 126 kts 182°
2026-05-07 04:20 29.31451 -100.62576 5531 ft 125 kts 182°
2026-05-07 04:21 29.29783 -100.62694 5132 ft 112 kts 180°
2026-05-07 04:21 29.29023 -100.62771 4938 ft 107 kts 184°
2026-05-07 04:21 29.28302 -100.62917 4766 ft 103 kts 188°
2026-05-07 04:21 29.27667 -100.63255 4585 ft 107 kts 210°
2026-05-07 04:22 29.27104 -100.63796 4438 ft 106 kts 223°
2026-05-07 04:22 29.26716 -100.64515 4279 ft 107 kts 242°
2026-05-07 04:22 29.26470 -100.65329 4117 ft 113 kts 258°
2026-05-07 04:22 29.26456 -100.66249 3946 ft 118 kts 274°
2026-05-07 04:23 29.26654 -100.67161 3759 ft 120 kts 296°
2026-05-07 04:23 29.27102 -100.67969 3593 ft 120 kts 311°
2026-05-07 04:23 29.27664 -100.68664 3421 ft 118 kts 318°
2026-05-07 04:23 29.28239 -100.69310 3249 ft 118 kts 319°
2026-05-07 04:24 29.28792 -100.69980 3048 ft 120 kts 316°
2026-05-07 04:24 29.29361 -100.70617 2877 ft 107 kts 323°
2026-05-07 04:24 29.29903 -100.71130 2727 ft 95 kts 329°
2026-05-07 04:24 29.30408 -100.71581 2603 ft 90 kts 327°
2026-05-07 04:25 29.30873 -100.72124 2419 ft 100 kts 315°
2026-05-07 04:25 29.31349 -100.72708 2268 ft 100 kts 320°
2026-05-07 04:25 29.31864 -100.73206 2160 ft 94 kts 325°
2026-05-07 04:25 29.32332 -100.73696 2016 ft 93 kts 322°
2026-05-07 04:26 29.32817 -100.74233 1726 ft 94 kts 319°
2026-05-07 04:26 29.33220 -100.74743 1519 ft 83 kts 310°
2026-05-07 04:26 29.33593 -100.75247 1456 ft 84 kts 319°
2026-05-07 04:26 29.34018 -100.75686 1365 ft 80 kts 323°
2026-05-07 04:27 29.34424 -100.76100 1270 ft 79 kts 315°
2026-05-07 04:27 29.34786 -100.76589 1171 ft 80 kts 321°
2026-05-07 04:27 29.35179 -100.77035 1075 ft 73 kts 321°
2026-05-07 04:27 29.35492 -100.77371 1074 ft 52 kts 318°
2026-05-07 04:28 29.35712 -100.77626 1075 ft 39 kts 319°
2026-05-07 04:28 29.35891 -100.77824 1075 ft 32 kts 314°
2026-05-07 04:28 29.36034 -100.77988 1076 ft 26 kts 314°
2026-05-07 04:28 29.36150 -100.78119 1079 ft 21 kts 318°
2026-05-07 04:29 29.36243 -100.78225 1080 ft 17 kts 314°
2026-05-07 04:29 29.36325 -100.78318 1081 ft 17 kts 314°
2026-05-07 04:29 29.36344 -100.78416 1081 ft 15 kts 219°
2026-05-07 04:29 29.36293 -100.78507 1081 ft 12 kts 297°
2026-05-07 04:30 29.36354 -100.78580 1080 ft 16 kts 322°
2026-05-07 04:30 29.36451 -100.78676 1080 ft 19 kts 319°
2026-05-07 04:30 29.36550 -100.78789 1079 ft 20 kts 315°
2026-05-07 04:30 29.36557 -100.78873 1079 ft 11 kts 206°
2026-05-07 04:31 29.36511 -100.78917 1081 ft 8 kts 214°
2026-05-07 04:31 29.36456 -100.78893 1081 ft 11 kts 135°
2026-05-07 04:31 29.36391 -100.78824 1081 ft 12 kts 146°
2026-05-07 04:31 29.36337 -100.78768 1081 ft 9 kts 144°
2026-05-07 04:32 29.36281 -100.78735 1081 ft 9 kts 129°
2026-05-07 04:32 29.36237 -100.78742 1081 ft 6 kts 172°
2026-05-07 04:32 29.36223 -100.78728 1081 ft 0 kts 131°